Location: *
(43.4667°N, 11.6833°E)
Time: 06:29:09
(UTC+00:00)

Lacrosse 5 rocket - Pass Details

Date: 19 July 2019
Orbit: 465 x 633 km, 57.0° (Epoch: 20 August)

Event Time Altitude Azimuth Distance (km) Brightness Sun altitude
Rises 20:20:41 0° 308° (NW) 2,928 6.9 -13.8°
Reaches altitude 10° 20:23:52 10° 330° (NNW) 2,021 5.5 -14.2°
Maximum altitude 20:26:41 16° 8° (N) 1,669 4.3 -14.5°
Drops below altitude 10° 20:29:29 10° 45° (NE) 2,004 4.2 -14.8°
Sets 20:32:37 0° 68° (ENE) 2,890 4.8 -15.2°
